Location: Natural Bridges National Monument
(37.6093°N, 109.9767°W)
Time: 13:34:16
(UTC-07:00)

Amateur Radio Satellites - All Passes

Search period start: 24 November 2017 13:04
Search period end: 25 November 2017 13:04
Location: Natural Bridges National Monument, 37.6093°N, 109.9767°W

Satellite Date Start Highest point End Downlink Frequencies (MHz)
Time Altitude Azimuth
BEESAT 2 24 Nov 13:06:08 13:08:33 16° 251° (WSW) 13:10:57 435.950
50 SAT 24 Nov 13:10:57 13:12:55 15° 95° (E) 13:14:53 437.505
JUGNU 24 Nov 13:20:15 13:21:22 10° 170° (S) 13:22:27 437.505
O/OREOS (USA 219) 24 Nov 13:22:39 13:27:03 45° 295° (WNW) 13:31:28 437.305
VELOX 1 24 Nov 13:35:28 13:39:44 47° 287° (WNW) 13:43:59 145.980
M-CUBED/EXP-1 PRIME 24 Nov 13:43:17 13:46:38 37° 67° (ENE) 13:50:16 437.505
Gurwin Techsat 1B 24 Nov 13:45:54 13:51:05 56° 259° (W) 13:56:20 435.225
AO-7 24 Nov 13:53:57 14:01:21 38° 62° (ENE) 14:08:46 .
FALCONSAT 3 24 Nov 13:56:42 13:58:10 12° 209° (SSW) 13:59:39 435.103
SPROUT 24 Nov 14:05:25 14:07:33 14° 295° (WNW) 14:09:41 437.525
DX 1 24 Nov 14:08:45 14:13:08 85° 103° (ESE) 14:17:29 434.975-435.025
AO-91 24 Nov 14:17:18 14:21:19 21° 267° (W) 14:25:22 145.960
Oscar 19 24 Nov 14:33:02 14:35:32 14° 268° (W) 14:38:04 437.125/150
NO-84 24 Nov 14:34:19 14:37:40 38° 321° (NW) 14:41:19 435.350 FM
50 SAT 24 Nov 14:42:28 14:44:55 20° 289° (WNW) 14:47:22 437.505
UKube-1 24 Nov 14:42:46 14:47:04 64° 286° (WNW) 14:51:20 .
ITAMSAT 1 24 Nov 14:51:30 14:56:32 50° 72° (ENE) 15:01:35 435.822/435.867
JUGNU 24 Nov 15:06:50 15:09:29 13° 180° (S) 15:12:08 437.505
MOZHAYETS 4 24 Nov 15:17:23 15:21:52 52° 100° (E) 15:26:19
M-CUBED/EXP-1 PRIME 24 Nov 15:19:40 15:21:17 12° 264° (W) 15:22:57 437.505
BEESAT 24 Nov 15:28:59 15:33:36 49° 100° (E) 15:38:12 436.000
DOVE 4 24 Nov 15:35:04 15:38:58 22° 66° (ENE) 15:42:56 437.250
CUBESAT XI-V 24 Nov 15:39:53 15:43:22 20° 94° (E) 15:46:50 437.345
ITUPSAT 1 24 Nov 15:41:15 15:46:00 66° 102° (ESE) 15:50:43 437.325
AO-7 24 Nov 15:46:03 15:53:54 46° 259° (W) 16:01:48 .
YUBILEINY 24 Nov 15:56:57 16:05:20 44° 76° (ENE) 16:13:37 435.215
RS-15 24 Nov 16:20:30 16:28:39 21° 99° (E) 16:36:46 29.354- 29.394
ITAMSAT 1 24 Nov 16:32:45 16:36:14 18° 267° (W) 16:39:44 435.822/435.867
LilacSat-2 24 Nov 16:33:47 16:35:26 13° 67° (ENE) 16:37:06 437.200
XW-2F 24 Nov 16:34:41 16:35:32 11° 66° (ENE) 16:36:22 145.980 - 146.000
KKS-1 24 Nov 16:42:06 16:45:14 19° 94° (E) 16:48:21 437.445
CUTE-I 24 Nov 16:52:15 16:56:29 24° 66° (ENE) 17:00:44 437.470
KAITUO 1B 24 Nov 16:54:21 16:56:25 15° 68° (ENE) 16:58:30 145.475/437.950
MOZHAYETS 4 24 Nov 16:56:05 16:58:33 15° 295° (WNW) 17:01:00
JUGNU 24 Nov 16:57:13 16:57:36 10° 191° (S) 16:57:59 437.505
SRMSAT 24 Nov 16:58:56 17:01:14 12° 174° (S) 17:03:32 437.500
BEESAT 24 Nov 17:08:01 17:10:56 16° 295° (WNW) 17:13:50 436.000
DOVE 4 24 Nov 17:11:28 17:16:15 42° 263° (W) 17:21:15 437.250
CUBESAT XI-V 24 Nov 17:16:30 17:20:47 36° 289° (WNW) 17:25:05 437.345
XW-2D 24 Nov 17:17:53 17:21:25 42° 74° (ENE) 17:24:58 145.860 - 145.880
ITUPSAT 1 24 Nov 17:21:12 17:23:13 13° 298° (WNW) 17:25:14 437.325
HO-68 24 Nov 17:28:40 17:34:43 30° 63° (ENE) 17:40:47 435.675
NUDT-PHONESAT 24 Nov 17:30:28 17:33:52 39° 73° (ENE) 17:37:17 437.300
XW-2B 24 Nov 17:32:41 17:36:21 65° 77° (ENE) 17:40:05 145.730 - 145.750
YUBILEINY 24 Nov 17:54:02 18:01:54 38° 274° (W) 18:09:45 435.215
CUTE 1.7 + AOD 2 24 Nov 17:55:44 17:59:16 27° 70° (ENE) 18:02:50 437.475
CUBEBUG 2 24 Nov 17:57:42 18:00:47 18° 68° (ENE) 18:03:49 437.445
XW-2C 24 Nov 17:58:37 18:02:15 52° 261° (W) 18:05:55 145.795 - 145.815
XW-2F 24 Nov 18:05:37 18:09:10 45° 261° (W) 18:12:46 145.980 - 146.000
LilacSat-2 24 Nov 18:05:48 18:09:19 38° 262° (W) 18:12:52 437.200
ISS 24 Nov 18:14:31 18:15:41 11° 127° (SE) 18:16:50 437.550
AAUSAT CUBESAT 2 24 Nov 18:15:26 18:16:37 11° 65° (ENE) 18:17:49 437.432
KKS-1 24 Nov 18:17:48 18:21:52 35° 289° (WNW) 18:25:54 437.445
SEEDS 24 Nov 18:18:15 18:21:51 29° 71° (ENE) 18:25:29 437.485
KAITUO 1B 24 Nov 18:26:47 18:30:05 31° 263° (W) 18:33:25 145.475/437.950
RS-15 24 Nov 18:27:05 18:39:23 87° 119° (ESE) 18:51:44 29.354- 29.394
ZACube-1 24 Nov 18:29:40 18:30:32 11° 65° (ENE) 18:31:24 437.345
STARS 24 Nov 18:30:17 18:34:39 66° 285° (WNW) 18:38:58 437.465
CUTE-I 24 Nov 18:31:14 18:36:15 40° 262° (W) 18:41:18 437.470
UWE-3 24 Nov 18:45:06 18:49:02 32° 72° (ENE) 18:52:53 435.000/436.395/437.385
SRMSAT 24 Nov 18:47:00 18:49:31 13° 184° (S) 18:52:02 437.500
nSIGHT-1 24 Nov 18:51:33 18:54:34 38° 134° (SE) 18:57:34 .
XW-2D 24 Nov 18:55:03 18:55:47 10° 269° (W) 18:56:30 145.860 - 145.880
NUDT-PHONESAT 24 Nov 19:06:53 19:07:52 11° 268° (W) 19:08:51 437.300
AO-73 24 Nov 19:14:57 19:18:42 31° 71° (ENE) 19:22:23 145.935
HO-68 24 Nov 19:15:11 19:22:06 50° 260° (W) 19:29:04 435.675
FO-29 24 Nov 19:17:49 19:21:26 14° 85° (E) 19:24:55 435.910
XW-2A 24 Nov 19:23:12 19:26:30 88° 80° (E) 19:29:50 145.665 - 145.685
Oscar 11 24 Nov 19:26:49 19:30:28 28° 70° (ENE) 19:34:09 .
CUTE 1.7 + AOD 2 24 Nov 19:31:47 19:35:03 22° 265° (W) 19:38:19 437.475
NO-84 24 Nov 19:32:04 19:34:09 13° 24° (NNE) 19:36:17 435.350 FM
CUBEBUG 2 24 Nov 19:32:51 19:37:06 38° 262° (W) 19:41:15 437.445
STRAND 1 24 Nov 19:47:21 19:52:28 75° 102° (ESE) 19:57:33 437.568
AAUSAT CUBESAT 2 24 Nov 19:47:29 19:51:32 56° 260° (W) 19:55:37 437.432
ISS 24 Nov 19:48:30 19:51:45 62° 322° (NW) 19:55:00 437.550
SEEDS 24 Nov 19:54:27 19:57:31 20° 266° (W) 20:00:37 437.485
ZACube-1 24 Nov 20:02:01 20:06:17 62° 259° (W) 20:10:29 437.345
SO-50 24 Nov 20:06:19 20:09:58 25° 112° (ESE) 20:13:39 436.795
UWE-3 24 Nov 20:22:17 20:25:29 20° 265° (W) 20:28:40 435.000/436.395/437.385
nSIGHT-1 24 Nov 20:28:15 20:30:52 22° 331° (NNW) 20:33:29 .
RS-15 24 Nov 20:42:58 20:53:33 32° 323° (NW) 21:04:03 29.354- 29.394
AO-73 24 Nov 20:51:51 20:54:56 19° 266° (W) 20:57:59 145.935
FO-29 24 Nov 20:59:41 21:07:31 84° 103° (ESE) 21:14:41 435.910
Oscar 11 24 Nov 21:03:14 21:06:34 22° 265° (W) 21:09:55 .
NO-84 24 Nov 21:08:05 21:12:17 57° 42° (NE) 21:16:28 435.350 FM
DELFI C3 24 Nov 21:14:32 21:18:29 82° 256° (WSW) 21:22:30 145.870
EO-88 24 Nov 21:17:26 21:20:54 46° 75° (ENE) 21:24:23 145.990 - 145.960
ISS 24 Nov 21:27:16 21:28:46 12° 340° (NNW) 21:30:15 437.550
Max Valier Satellite 24 Nov 21:28:41 21:32:19 78° 259° (W) 21:35:58 145.860
STRAND 1 24 Nov 21:28:50 21:30:58 13° 299° (WNW) 21:33:05 437.568
SO-50 24 Nov 21:46:18 21:50:17 31° 308° (NW) 21:54:18 436.795
PRISM 24 Nov 21:54:47 21:57:19 16° 94° (E) 21:59:51 437.425
O/OREOS (USA 219) 24 Nov 21:55:50 21:59:26 23° 60° (ENE) 22:03:00 437.305
UNISAT 6 24 Nov 22:11:02 22:15:19 85° 106° (ESE) 22:19:34 437.425
TIGRISAT 24 Nov 22:14:13 22:18:28 84° 100° (E) 22:22:43 435.000
FO-29 24 Nov 22:46:18 22:51:27 20° 302° (WNW) 22:56:25 435.910
NO-84 24 Nov 22:46:25 22:49:16 17° 237° (WSW) 22:52:05 435.350 FM
ESTCUBE 1 24 Nov 22:52:06 22:56:31 63° 75° (ENE) 23:00:58 437.505/2401.250
VELOX 1 24 Nov 22:57:47 22:58:41 11° 63° (ENE) 22:59:35 145.980
LO-87 24 Nov 23:01:31 23:05:05 63° 260° (W) 23:08:40 145.935 - 145.965
RS-15 24 Nov 23:04:37 23:11:46 17° 358° (N) 23:18:48 29.354- 29.394
SPROUT 24 Nov 23:19:22 23:23:01 28° 70° (ENE) 23:26:40 437.525
AIST 2D 24 Nov 23:20:56 23:24:25 54° 100° (E) 23:27:53 435.315
QB50P2 24 Nov 23:23:46 23:26:50 19° 95° (E) 23:29:53 145.880/145.840
PRISM 24 Nov 23:28:51 23:32:41 36° 288° (WNW) 23:36:29 437.425
PCSat 24 Nov 23:32:17 23:37:42 86° 116° (ESE) 23:43:09 145.827
O/OREOS (USA 219) 24 Nov 23:34:51 23:38:51 31° 256° (WSW) 23:42:48 437.305
DUCHIFAT 1 25 Nov 00:05:41 00:09:38 40° 99° (E) 00:13:33 145.980
EO-79 25 Nov 00:18:17 00:22:29 80° 102° (ESE) 00:26:39 145.935-145.965
NANOSAT C BR1 25 Nov 00:18:36 00:22:47 70° 102° (ESE) 00:26:55 145.865
VELOX 1 25 Nov 00:30:04 00:34:29 70° 258° (WSW) 00:38:57 145.980
ESTCUBE 1 25 Nov 00:33:00 00:33:41 10° 270° (W) 00:34:23 437.505/2401.250
POLYITAN 1 25 Nov 00:34:52 00:39:01 65° 285° (WNW) 00:43:09 437.675
BUGSAT 1 25 Nov 00:41:45 00:44:58 23° 96° (E) 00:48:09 437.445
ISS 25 Nov 00:42:34 00:44:14 13° 21° (NNE) 00:45:52 437.550
SPROUT 25 Nov 00:55:32 00:58:51 22° 265° (W) 01:02:12 437.525
QB50P2 25 Nov 00:58:57 01:02:38 30° 289° (WNW) 01:06:17 145.880/145.840
DX 1 25 Nov 01:01:56 01:06:12 56° 74° (ENE) 01:10:30 434.975-435.025
Oscar 19 25 Nov 01:04:47 01:09:01 25° 95° (E) 01:13:14 437.125/150
50 SAT 25 Nov 01:06:16 01:09:28 71° 77° (ENE) 01:12:41 437.505
PCSat 25 Nov 01:18:49 01:21:48 15° 315° (NW) 01:24:49 145.827
BEESAT 2 25 Nov 01:19:36 01:20:12 10° 107° (ESE) 01:20:49 435.950
nSIGHT-1 25 Nov 01:20:05 01:22:47 25° 30° (NNE) 01:25:29 .
RS-15 25 Nov 01:20:20 01:30:15 28° 34° (NNE) 01:39:41 29.354- 29.394
BEESAT 3 25 Nov 01:31:22 01:35:17 60° 117° (ESE) 01:39:14 437.485
UKube-1 25 Nov 01:34:43 01:39:02 82° 75° (ENE) 01:43:23 .
DUCHIFAT 1 25 Nov 01:42:33 01:44:55 15° 294° (WNW) 01:47:17 145.980
AO-7 25 Nov 02:02:24 02:03:23 10° 88° (E) 02:04:21 .
Gurwin Techsat 1B 25 Nov 02:03:52 02:09:11 68° 102° (ESE) 02:14:28 435.225
AO-91 25 Nov 02:08:50 02:13:10 67° 285° (WNW) 02:17:00 145.960
BUGSAT 1 25 Nov 02:17:00 02:20:12 23° 291° (WNW) 02:23:23 437.445
MOZHAYETS 4 25 Nov 02:17:14 02:21:28 39° 72° (ENE) 02:25:42
ISS 25 Nov 02:17:56 02:21:12 70° 40° (NE) 02:24:26 437.550
BEESAT 25 Nov 02:33:16 02:37:49 46° 72° (ENE) 02:42:22 436.000
DX 1 25 Nov 02:41:15 02:42:41 11° 268° (W) 02:44:08 434.975-435.025
CUBESAT XI-V 25 Nov 02:41:58 02:44:50 16° 66° (ENE) 02:47:41 437.345
Oscar 19 25 Nov 02:43:40 02:48:20 35° 291° (WNW) 02:53:00 437.125/150
ITUPSAT 1 25 Nov 02:45:49 02:50:31 62° 74° (ENE) 02:55:14 437.325
BEESAT 2 25 Nov 02:53:25 02:57:21 59° 302° (WNW) 03:01:22 435.950
nSIGHT-1 25 Nov 02:56:09 02:59:01 31° 227° (SW) 03:01:53 .
M-CUBED/EXP-1 PRIME 25 Nov 02:56:29 03:00:55 44° 104° (ESE) 03:05:20 437.505
AO-85 25 Nov 03:02:11 03:05:56 52° 117° (ESE) 03:09:50 145.980
ITAMSAT 1 25 Nov 03:07:07 03:10:55 20° 94° (E) 03:14:41 435.822/435.867
BEESAT 3 25 Nov 03:11:13 03:13:10 13° 314° (NW) 03:15:09 437.485
RS-15 25 Nov 03:32:46 03:44:38 86° 60° (ENE) 03:55:49 29.354- 29.394
KKS-1 25 Nov 03:38:59 03:41:30 15° 65° (ENE) 03:44:00 437.445
Gurwin Techsat 1B 25 Nov 03:45:39 03:48:30 15° 298° (WNW) 03:51:21 435.225
AO-7 25 Nov 03:49:05 03:57:26 69° 105° (ESE) 04:05:44 .
MOZHAYETS 4 25 Nov 03:55:41 03:58:44 18° 267° (W) 04:01:48
BEESAT 25 Nov 04:12:49 04:15:47 16° 267° (W) 04:18:46 436.000
CUBESAT XI-V 25 Nov 04:17:23 04:21:46 45° 261° (W) 04:26:14 437.345
ITUPSAT 1 25 Nov 04:26:48 04:28:41 12° 269° (W) 04:30:35 437.325
M-CUBED/EXP-1 PRIME 25 Nov 04:31:40 04:34:55 19° 298° (WNW) 04:38:12 437.505
SO-50 25 Nov 04:39:10 04:42:14 17° 46° (NE) 04:45:19 436.795
AO-85 25 Nov 04:44:36 04:46:41 14° 315° (NW) 04:48:50 145.980
ITAMSAT 1 25 Nov 04:45:37 04:50:32 44° 289° (WNW) 04:55:25 435.822/435.867
YUBILEINY 25 Nov 04:55:05 05:03:29 54° 90° (E) 05:11:57 435.215
DOVE 4 25 Nov 05:12:15 05:17:19 66° 100° (E) 05:22:04 437.250
KKS-1 25 Nov 05:13:16 05:17:35 49° 260° (W) 05:21:57 437.445
STARS 25 Nov 05:24:21 05:28:47 84° 76° (ENE) 05:33:14 437.465
XW-2C 25 Nov 05:33:35 05:36:09 17° 94° (E) 05:38:43 145.795 - 145.815
XW-2F 25 Nov 05:39:48 05:42:34 19° 95° (E) 05:45:19 145.980 - 146.000
LilacSat-2 25 Nov 05:40:51 05:43:58 23° 96° (E) 05:47:04 437.200
AO-7 25 Nov 05:42:56 05:49:28 27° 303° (WNW) 05:56:02 .
RS-15 25 Nov 05:47:26 05:55:23 22° 260° (W) 06:03:08 29.354- 29.394
KAITUO 1B 25 Nov 05:59:21 06:02:32 25° 96° (E) 06:05:42 145.475/437.950
SO-50 25 Nov 06:18:27 06:23:04 60° 242° (WSW) 06:27:42 436.795
XW-2D 25 Nov 06:25:40 06:29:30 87° 108° (ESE) 06:33:20 145.860 - 145.880
NUDT-PHONESAT 25 Nov 06:35:27 06:39:11 74° 101° (ESE) 06:42:54 437.300
XW-2B 25 Nov 06:40:43 06:44:30 62° 284° (WNW) 06:48:17 145.730 - 145.750
HO-68 25 Nov 06:44:57 06:51:29 37° 98° (E) 06:57:58 435.675
FALCONSAT 3 25 Nov 06:47:22 06:49:15 14° 151° (SSE) 06:51:07 435.103
CUTE-I 25 Nov 06:49:44 06:55:08 86° 285° (WNW) 07:00:28 437.470
DOVE 4 25 Nov 06:51:51 06:54:17 14° 298° (WNW) 06:56:40 437.250
YUBILEINY 25 Nov 06:53:06 07:00:36 31° 289° (WNW) 07:08:11 435.215
STRAND 1 25 Nov 07:01:05 07:06:15 87° 77° (ENE) 07:11:25 437.568
XW-2C 25 Nov 07:07:02 07:10:19 28° 288° (WNW) 07:13:36 145.795 - 145.815
FO-29 25 Nov 07:09:11 07:15:08 33° 64° (ENE) 07:21:38 435.910
XW-2F 25 Nov 07:13:28 07:16:36 25° 289° (WNW) 07:19:46 145.980 - 146.000
LilacSat-2 25 Nov 07:15:08 07:18:05 21° 290° (WNW) 07:21:03 437.200
CUTE 1.7 + AOD 2 25 Nov 07:17:06 07:21:23 71° 101° (E) 07:25:40 437.475
CUBEBUG 2 25 Nov 07:25:10 07:29:10 47° 99° (E) 07:33:10 437.445
AAUSAT CUBESAT 2 25 Nov 07:31:38 07:35:05 24° 95° (E) 07:38:31 437.432
KAITUO 1B 25 Nov 07:33:37 07:36:19 19° 291° (WNW) 07:39:00 145.475/437.950
SEEDS 25 Nov 07:38:29 07:42:45 75° 103° (ESE) 07:46:59 437.485
ZACube-1 25 Nov 07:52:16 07:55:48 26° 96° (E) 07:59:21 437.345
UWE-3 25 Nov 08:12:04 08:16:14 86° 281° (W) 08:20:24 435.000/436.395/437.385
XW-2A 25 Nov 08:18:47 08:22:08 64° 284° (WNW) 08:25:29 145.665 - 145.685
PCSat 25 Nov 08:22:10 08:27:24 45° 58° (ENE) 08:32:33 145.827
FALCONSAT 3 25 Nov 08:24:21 08:27:49 40° 165° (SSE) 08:31:18 435.103
HO-68 25 Nov 08:32:36 08:39:10 40° 294° (WNW) 08:45:42 435.675
CUTE-I 25 Nov 08:33:15 08:34:18 11° 301° (WNW) 08:35:22 437.470
AO-73 25 Nov 08:39:51 08:44:01 88° 97° (E) 08:48:15 145.935
Oscar 11 25 Nov 08:50:56 08:55:17 77° 103° (ESE) 08:59:36 .
FO-29 25 Nov 08:53:23 08:59:48 47° 263° (W) 09:06:58 435.910
DELFI C3 25 Nov 08:54:32 08:56:42 14° 93° (E) 08:58:50 145.870
Max Valier Satellite 25 Nov 09:02:38 09:03:24 10° 92° (E) 09:04:09 145.860
CUBEBUG 2 25 Nov 09:03:31 09:05:21 13° 294° (WNW) 09:07:12 437.445
AAUSAT CUBESAT 2 25 Nov 09:07:02 09:10:25 24° 290° (WNW) 09:13:47 437.432
UNISAT 6 25 Nov 09:07:23 09:11:51 58° 74° (ENE) 09:16:13 437.425
TIGRISAT 25 Nov 09:10:25 09:14:52 56° 75° (ENE) 09:19:13 435.000
ZACube-1 25 Nov 09:28:42 09:31:55 22° 291° (WNW) 09:35:11 437.345
BEESAT 3 25 Nov 09:50:15 09:53:11 20° 49° (NE) 09:56:05 437.485
AIST 2D 25 Nov 09:54:23 09:56:18 14° 69° (ENE) 09:58:14 435.315
FALCONSAT 3 25 Nov 10:03:05 10:06:44 62° 180° (S) 10:10:23 435.103
PCSat 25 Nov 10:06:18 10:10:26 23° 254° (WSW) 10:14:32 145.827
PRISM 25 Nov 10:15:16 10:19:22 70° 258° (WSW) 10:23:32 437.425
QB50P2 25 Nov 10:15:47 10:17:33 12° 65° (ENE) 10:19:18 145.880/145.840
EO-88 25 Nov 10:20:52 10:24:32 84° 102° (ESE) 10:28:12 145.990 - 145.960
DELFI C3 25 Nov 10:27:51 10:31:33 37° 287° (WNW) 10:35:12 145.870
LO-87 25 Nov 10:32:19 10:33:06 11° 92° (E) 10:33:54 145.935 - 145.965
Max Valier Satellite 25 Nov 10:33:53 10:37:22 41° 286° (WNW) 10:40:51 145.860
UNISAT 6 25 Nov 10:47:14 10:48:50 12° 269° (W) 10:50:25 437.425
ESTCUBE 1 25 Nov 10:47:37 10:50:21 16° 93° (E) 10:53:04 437.505/2401.250
TIGRISAT 25 Nov 10:50:08 10:51:49 12° 268° (W) 10:53:29 435.000
DUCHIFAT 1 25 Nov 10:55:43 10:59:05 24° 69° (ENE) 11:02:27 145.980
EO-79 25 Nov 11:08:23 11:12:25 44° 73° (ENE) 11:16:26 145.935-145.965
NANOSAT C BR1 25 Nov 11:08:28 11:12:23 38° 72° (ENE) 11:16:17 145.865
BEESAT 2 25 Nov 11:12:39 11:16:29 41° 55° (NE) 11:20:14 435.950
POLYITAN 1 25 Nov 11:24:53 11:29:05 70° 76° (ENE) 11:33:17 437.675
AIST 2D 25 Nov 11:26:13 11:29:12 27° 263° (W) 11:32:12 435.315
BEESAT 3 25 Nov 11:27:15 11:30:47 32° 246° (WSW) 11:34:15 437.485
BUGSAT 1 25 Nov 11:30:30 11:32:39 14° 66° (ENE) 11:34:48 437.445
AO-85 25 Nov 11:34:11 11:38:24 31° 53° (NE) 11:42:54 145.980
FALCONSAT 3 25 Nov 11:42:09 11:45:37 39° 195° (SSW) 11:49:05 435.103
Gurwin Techsat 1B 25 Nov 11:47:52 11:49:09 11° 60° (ENE) 11:50:26 435.225
QB50P2 25 Nov 11:48:43 11:52:51 53° 260° (W) 11:57:00 145.880/145.840
LO-87 25 Nov 12:03:23 12:06:39 36° 287° (WNW) 12:09:55 145.935 - 145.965
O/OREOS (USA 219) 25 Nov 12:05:39 12:09:50 36° 105° (ESE) 12:14:03 437.305
Oscar 19 25 Nov 12:19:45 12:24:11 31° 69° (ENE) 12:28:38 437.125/150
VELOX 1 25 Nov 12:22:22 12:26:00 25° 96° (E) 12:29:37 145.980
ESTCUBE 1 25 Nov 12:23:01 12:27:19 44° 287° (WNW) 12:31:37 437.505/2401.250
NO-84 25 Nov 12:23:13 12:24:53 13° 121° (ESE) 12:26:36 435.350 FM
DUCHIFAT 1 25 Nov 12:31:09 12:34:37 25° 264° (W) 12:38:07 145.980
SPROUT 25 Nov 12:41:39 12:45:53 70° 101° (E) 12:50:06 437.525
NANOSAT C BR1 25 Nov 12:45:41 12:48:11 15° 267° (W) 12:50:43 145.865
EO-79 25 Nov 12:46:13 12:48:21 14° 268° (W) 12:50:29 145.935-145.965
BEESAT 2 25 Nov 12:51:32 12:53:49 15° 251° (WSW) 12:56:05 435.950
DX 1 25 Nov 12:54:30 12:55:38 11° 91° (E) 12:56:46 434.975-435.025
